Huntington, WV

9:46 PM EST on November 21, 2017 (GMT -0500)
Tri-State / Ferguson

Weather History for KHTS - December, 2012

Change the Weather History Date:

Thursday, December 20, 2012

  Actual Average Record
Temperature  
Mean Temperature 44 °F 36 °F  
Max Temperature 53 °F 44 °F 70 °F (1908)
Min Temperature 35 °F 28 °F -2 °F (1963)
Degree Days  
Heating Degree Days 21 29  
Month to date heating degree days 345 537  
Since 1 July heating degree days 1397 1424  
Cooling Degree Days 0 0  
Month to date cooling degree days 0 0  
Year to date cooling degree days 1325 1134  
Moisture  
Dew Point 38 °F    
Average Humidity 78    
Maximum Humidity 92    
Minimum Humidity 64    
Precipitation  
Precipitation 0.50 in 0.10 in 1.04 in (1951)
Month to date precipitation 3.80 2.17  
Year to date precipitation 40.01 41.45  
Snow  
Snow 0.00 in - - ()
Month to date snowfall 0.0  
Since 1 September snowfall 1.9  
Snow Depth 0.00 in    
Sea Level Pressure  
Sea Level Pressure 29.66 in    
Wind  
Wind Speed 10 mph (SSE)    
Max Wind Speed 29 mph    
Max Gust Speed 44 mph    
Visibility 8 miles    
Events Rain , Snow    
T = Trace of Precipitation, MM = Missing Value Source: NWS Daily Summary

Daily Weather History Graph

Daily Weather History Graph

Search for Another Location

Airport or City:

Trip Planner

Search our weather history database for the weather conditions in past years. The results will help you decide how hot, cold, wet, or windy it might be!

Date:

Astronomy

Dec. 20, 2012 Rise Set
Actual Time 7:43 AM EST 5:12 PM EST
Civil Twilight 7:13 AM EST 5:42 PM EST
Nautical Twilight 6:40 AM EST 6:15 PM EST
Astronomical Twilight 6:08 AM EST 6:48 PM EST
Moon 12:26 PM EST (12/20) 12:33 AM EST (12/20)
Length of Visible Light 10h 28m
Length of Day
9h 29m
First Quarter, 55% of the Moon is Illuminated
Dec 20
First Quarter
Dec 28
Full
Jan 4
Last Quarter
Jan 11
New
Jan 18
First Quarter

Hourly Weather History & Observations

Time (EST) Temp. Windchill Dew Point Humidity Pressure Visibility Wind Dir Wind Speed Gust Speed Precip Events Conditions
12:51 AM 39.2 °F - 35.6 °F 87% 30.00 in 10.0 mi Calm Calm - N/A   Clear
1:51 AM 37.0 °F - 34.0 °F 89% 29.98 in 8.0 mi Calm Calm - N/A   Clear
2:51 AM 37.0 °F 32.4 °F 35.1 °F 93% 29.95 in 9.0 mi ENE 5.8 mph - N/A   Clear
3:51 AM 37.9 °F - 35.1 °F 89% 29.93 in 10.0 mi Calm Calm - N/A   Clear
4:51 AM 36.0 °F 33.3 °F 34.0 °F 93% 29.88 in 7.0 mi ENE 3.5 mph - N/A   Clear
5:51 AM 39.0 °F 35.7 °F 35.1 °F 86% 29.83 in 10.0 mi East 4.6 mph - N/A   Clear
6:51 AM 39.0 °F 34.0 °F 35.1 °F 86% 29.76 in 10.0 mi East 6.9 mph - N/A   Clear
7:51 AM 44.1 °F 38.1 °F 35.1 °F 71% 29.69 in 10.0 mi ESE 11.5 mph - N/A   Clear
8:51 AM 53.1 °F - 36.0 °F 52% 29.70 in 10.0 mi SSE 9.2 mph - 0.00 in Rain Light Rain
9:51 AM 50.0 °F - 43.0 °F 77% 29.70 in 5.0 mi SSE 10.4 mph 21.9 mph 0.08 in Rain Rain
10:51 AM 48.9 °F - 43.0 °F 80% 29.66 in 10.0 mi SE 12.7 mph 20.7 mph 0.08 in Rain Light Rain
11:51 AM 48.9 °F - 44.1 °F 83% 29.62 in 10.0 mi SSE 8.1 mph 21.9 mph 0.04 in   Overcast
12:51 PM 50.0 °F - 45.0 °F 83% 29.56 in 10.0 mi SSE 6.9 mph - 0.00 in Rain Light Rain
1:51 PM 51.1 °F - 46.0 °F 83% 29.52 in 5.0 mi SSE 12.7 mph 18.4 mph 0.05 in Rain Rain
2:51 PM 50.0 °F - 46.4 °F 87% 29.48 in 5.0 mi SE 9.2 mph - N/A Rain Light Rain
3:51 PM 50.0 °F - 46.0 °F 86% 29.43 in 5.0 mi SSE 9.2 mph - 0.06 in Rain Light Rain
4:51 PM 50.0 °F - 45.0 °F 83% 29.43 in 7.0 mi South 12.7 mph 18.4 mph 0.01 in Rain Light Rain
5:51 PM 50.0 °F - 45.0 °F 83% 29.42 in 10.0 mi South 13.8 mph 27.6 mph 0.00 in Rain Light Rain
6:51 PM 50.0 °F - 46.9 °F 89% 29.44 in 9.0 mi SSW 11.5 mph 18.4 mph 0.03 in Rain Light Rain
7:51 PM 44.1 °F 36.8 °F 39.9 °F 85% 29.50 in 6.0 mi WSW 16.1 mph 32.2 mph 0.08 in Rain Light Rain
8:51 PM 41.0 °F 32.2 °F 30.9 °F 67% 29.55 in 8.0 mi WSW 18.4 mph 26.5 mph 0.00 in   Overcast
9:10 PM 39.2 °F 29.0 °F 28.4 °F 65% 29.54 in 8.0 mi WSW 21.9 mph 36.8 mph N/A   Overcast
9:51 PM 39.0 °F 30.6 °F 28.0 °F 65% 29.56 in 8.0 mi WSW 15.0 mph 21.9 mph N/A   Mostly Cloudy
10:51 PM 37.9 °F 28.9 °F 28.0 °F 68% 29.59 in 10.0 mi WSW 16.1 mph 35.7 mph 0.00 in Rain Light Rain
11:51 PM 35.1 °F 25.5 °F 28.9 °F 78% 29.61 in 10.0 mi WSW 15.0 mph 24.2 mph 0.00 in Snow Light Snow